DW2819 Kirkkonummi FI current weather conditions

sailwx.info

Wind from 163

Air temperature 16.1° C
Dewpoint 14.6° C

Last reported at 2019-Jul-17 16:10 UTC.
Time now 2019-Jul-17 17:05 UTC

Location: N 60°16' E 024°27'.
View on Google Maps.

See reports from other nearby stations

  
Tides and Currents Weather Stations Pressure Air Temp Water Temp Dewpoint Dewpoint Depression Visibility Wind Speed Wind Dir Waves Ship Positions
date/time (UTC)wind fromknots sea level pressurealtimeterstation pressurevisibilityair tempwater tempwave heightnotes
2019-Jul-17 16:10 163 16.1
2019-Jul-17 15:59 163 16.1
2019-Jul-17 15:49 163 16.1
2019-Jul-17 15:39 163 16.1
2019-Jul-17 15:29 163 16.1
2019-Jul-17 15:19 163 16.7
2019-Jul-17 15:09 163 16.7
2019-Jul-17 14:59 163 17.2
2019-Jul-17 14:49 163 16.7
2019-Jul-17 14:39 163 16.7
2019-Jul-17 14:28 163 16.1
2019-Jul-17 14:19 163 16.1
2019-Jul-17 14:08 163 15.6
2019-Jul-17 13:58 163 15.6
2019-Jul-17 13:48 163 16.1
2019-Jul-17 13:38 104 16.7
2019-Jul-17 13:28 097 17.8
2019-Jul-17 13:18 311 18.9
2019-Jul-17 13:08 273 20.6
2019-Jul-17 12:58 165 21.7
2019-Jul-17 12:48 159 22.2
2019-Jul-17 12:38 123 22.8
2019-Jul-17 12:28 178 22.8
2019-Jul-17 12:18 136 22.2
2019-Jul-17 12:08 140 22.2
2019-Jul-17 11:57 136 22.2
2019-Jul-17 11:48 132 22.2
2019-Jul-17 11:37 115 22.8
2019-Jul-17 11:27 101 23.3
2019-Jul-17 11:17 123 23.3
2019-Jul-17 11:07 139 22.8
2019-Jul-17 10:58 092 22.2
2019-Jul-17 10:48 092 22.8
2019-Jul-17 10:37 096 22.2
2019-Jul-17 10:27 094 22.2
2019-Jul-17 10:17 103 22.8
2019-Jul-17 10:07 080 23.9
2019-Jul-17 09:57 121 23.3
2019-Jul-17 09:48 057 23.9
2019-Jul-17 09:38 046 23.3
2019-Jul-17 09:28 090 23.3
2019-Jul-17 09:18 057 23.3
2019-Jul-17 09:08 049 23.3
2019-Jul-17 08:58 099 22.8
2019-Jul-17 08:48 110 22.8
2019-Jul-17 08:38 064 22.8
2019-Jul-17 08:28 085 22.8
2019-Jul-17 08:18 096 22.2
2019-Jul-17 08:08 069 22.8
2019-Jul-17 07:57 069 21.7
2019-Jul-17 07:47 105 21.7
2019-Jul-17 07:37 068 21.7
2019-Jul-17 07:27 071 21.1
2019-Jul-17 07:18 112 21.1
2019-Jul-17 07:07 073 21.1
2019-Jul-17 06:57 079 20.6
2019-Jul-17 06:47 084 20.0
2019-Jul-17 06:37 088 20.0
2019-Jul-17 06:27 098 19.4
2019-Jul-17 06:18 077 18.9
2019-Jul-17 06:07 069 18.3
2019-Jul-17 05:57 069 17.8
2019-Jul-17 05:48 069 17.8
2019-Jul-17 05:37 074 17.2
2019-Jul-17 05:27 074 16.7
2019-Jul-17 05:17 071 16.7
2019-Jul-17 05:08 071 16.1
2019-Jul-17 04:57 063 16.1
2019-Jul-17 04:47 094 15.6
2019-Jul-17 04:37 122 15.6
2019-Jul-17 04:26 085 15.0
2019-Jul-17 04:16 079 15.0
2019-Jul-17 04:06 089 14.4
2019-Jul-17 03:57 090 14.4
2019-Jul-17 03:47 090 13.9
2019-Jul-17 03:37 090 13.9
2019-Jul-17 03:26 090 13.3
2019-Jul-17 03:16 090 13.3
2019-Jul-17 03:07 090 13.3
2019-Jul-17 02:56 092 12.8
2019-Jul-17 02:46 076 12.8
2019-Jul-17 02:36 072 12.8
2019-Jul-17 02:26 075 12.8
2019-Jul-17 02:16 075 12.8
2019-Jul-17 02:05 075 12.8
2019-Jul-17 01:55 075 12.8
2019-Jul-17 01:46 075 12.8
2019-Jul-17 01:36 075 12.8
2019-Jul-17 01:26 074 12.8
2019-Jul-17 01:16 070 12.8
2019-Jul-17 01:05 071 13.3
2019-Jul-17 00:55 071 13.3
2019-Jul-17 00:45 070 13.3
2019-Jul-17 00:35 071 13.3
2019-Jul-17 00:25 069 13.3
2019-Jul-17 00:15 068 13.3
2019-Jul-17 00:05 068 13.3
2019-Jul-16 23:55 068 13.3
2019-Jul-16 23:44 064 13.3
2019-Jul-16 23:34 063 13.3
2019-Jul-16 23:24 067 13.3
2019-Jul-16 23:14 124 13.3
2019-Jul-16 23:04 124 13.3
2019-Jul-16 22:54 124 13.9
2019-Jul-16 22:44 124 13.9
2019-Jul-16 22:34 130 13.9
2019-Jul-16 22:24 142 13.9
2019-Jul-16 22:14 142 13.9
2019-Jul-16 22:04 144 13.9
2019-Jul-16 21:54 149 13.9
2019-Jul-16 21:44 149 13.3
2019-Jul-16 21:34 149 13.3
2019-Jul-16 21:24 149 13.3
2019-Jul-16 21:14 149 13.3
2019-Jul-16 21:04 149 13.3
2019-Jul-16 20:54 149 13.3
2019-Jul-16 20:43 149 13.3
2019-Jul-16 20:33 149 13.3
2019-Jul-16 20:23 149 13.3
2019-Jul-16 20:13 149 13.3
2019-Jul-16 20:03 149 13.9
2019-Jul-16 19:52 149 13.9
2019-Jul-16 19:42 149 14.4
2019-Jul-16 19:32 149 14.4
2019-Jul-16 19:22 149 14.4
2019-Jul-16 19:11 149 14.4
2019-Jul-16 19:01 149 15.0
2019-Jul-16 18:52 149 15.0
2019-Jul-16 18:42 149 15.0
2019-Jul-16 18:31 149 15.6
2019-Jul-16 18:21 149 15.6
2019-Jul-16 18:11 149 15.6
2019-Jul-16 18:01 149 15.6
2019-Jul-16 17:51 149 16.1
2019-Jul-16 17:41 149 16.1
2019-Jul-16 17:30 149 16.7
2019-Jul-16 17:20 148 16.7
2019-Jul-16 17:09 197 16.7
2019-Jul-16 16:59 089 17.2
2019-Jul-16 16:49 191 17.2
2019-Jul-16 16:40 132 0 gusting 6 17.2
2019-Jul-16 16:30 157 17.2
2019-Jul-16 16:20 145 17.2
2019-Jul-16 16:10 113 17.2
2019-Jul-16 16:01 121 0 gusting 6 17.2
2019-Jul-16 15:51 159 17.2
2019-Jul-16 15:40 161 17.2
2019-Jul-16 15:31 101 16.7
2019-Jul-16 15:21 153 16.1
2019-Jul-16 15:10 109 15.6
2019-Jul-16 15:00 107 15.6
2019-Jul-16 14:50 103 15.6
2019-Jul-16 14:41 143 15.6
2019-Jul-16 14:30 138 0 gusting 9 15.6
2019-Jul-16 14:20 060 0 gusting 6 16.1
2019-Jul-16 14:10 173 1 gusting 12 16.7
2019-Jul-16 14:00 141 3 gusting 12 17.2
2019-Jul-16 13:50 052 3 gusting 11 17.2
2019-Jul-16 13:40 122 2 gusting 10 17.2
2019-Jul-16 13:30 090 1 gusting 8 16.7
2019-Jul-16 13:19 128 16.7
2019-Jul-16 13:09 126 16.1
2019-Jul-16 12:59 126 16.1
2019-Jul-16 12:49 125 16.1
2019-Jul-16 12:39 086 15.6
2019-Jul-16 12:29 120 15.6
2019-Jul-16 12:19 144 16.7
2019-Jul-16 12:09 145 1 gusting 12 17.8
2019-Jul-16 11:58 121 19.4
2019-Jul-16 11:49 119 0 gusting 12 19.4
2019-Jul-16 11:38 149 0 gusting 9 20.0
2019-Jul-16 11:28 062 0 gusting 9 20.6
2019-Jul-16 11:18 063 2 gusting 10 20.0
2019-Jul-16 11:08 097 2 gusting 9 19.4
2019-Jul-16 10:58 105 0 gusting 10 18.9
2019-Jul-16 10:48 085 0 gusting 7 18.9
2019-Jul-16 10:37 133 1 gusting 11 18.9
2019-Jul-16 10:28 096 1 gusting 11 18.3
2019-Jul-16 10:18 190 1 gusting 10 17.8
2019-Jul-16 10:08 080 0 gusting 8 18.3
2019-Jul-16 09:57 109 1 gusting 10 18.3
2019-Jul-16 09:47 123 1 gusting 10 17.8
2019-Jul-16 09:37 123 1 gusting 8 17.8
2019-Jul-16 09:27 126 0 gusting 8 17.2
2019-Jul-16 09:17 097 0 gusting 8 17.2
2019-Jul-16 09:07 080 0 gusting 10 17.2
2019-Jul-16 08:56 137 0 gusting 10 16.7
2019-Jul-16 08:47 170 0 gusting 7 16.7
2019-Jul-16 08:36 076 0 gusting 6 16.7
2019-Jul-16 08:26 142 0 gusting 6 16.1
2019-Jul-16 08:16 080 0 gusting 8 16.1
2019-Jul-16 08:07 090 1 gusting 8 16.1
2019-Jul-16 07:56 059 1 gusting 8 16.1
2019-Jul-16 07:47 091 16.1
2019-Jul-16 07:37 080 16.1
2019-Jul-16 07:27 154 1 gusting 6 16.1
2019-Jul-16 07:17 096 1 gusting 8 16.1
2019-Jul-16 07:06 123 0 gusting 8 16.1
2019-Jul-16 06:56 030 0 gusting 7 15.6
2019-Jul-16 06:46 101 15.6
2019-Jul-16 06:35 070 15.0
2019-Jul-16 06:25 083 15.0
2019-Jul-16 06:16 046 15.0
2019-Jul-16 06:06 144 14.4
2019-Jul-16 05:55 137 14.4
2019-Jul-16 05:45 127 14.4
2019-Jul-16 05:35 154 14.4
2019-Jul-16 05:25 164 14.4
2019-Jul-16 05:15 116 14.4
2019-Jul-16 05:04 138 13.9
2019-Jul-16 04:55 201 13.9
2019-Jul-16 04:45 094 13.9
2019-Jul-16 04:34 129 13.9
2019-Jul-16 04:25 134 13.9
2019-Jul-16 04:15 130 13.3
2019-Jul-16 04:04 128 13.3
2019-Jul-16 03:54 140 13.3
2019-Jul-16 03:44 141 13.3
2019-Jul-16 03:34 141 12.8
2019-Jul-16 03:24 141 12.8
2019-Jul-16 03:13 141 13.3
2019-Jul-16 03:03 141 13.3
2019-Jul-16 02:53 141 13.3
2019-Jul-16 02:43 141 13.3
2019-Jul-16 02:33 141 13.3
2019-Jul-16 02:22 141 13.3
2019-Jul-16 02:12 141 13.9
2019-Jul-16 02:01 141 13.9
2019-Jul-16 01:51 141 13.9
2019-Jul-16 01:41 138 14.4
2019-Jul-16 01:31 140 13.9
2019-Jul-16 01:21 140 13.9
2019-Jul-16 01:11 141 13.9
2019-Jul-16 01:01 141 13.9
2019-Jul-16 00:51 141 13.9
2019-Jul-16 00:42 131 13.9
2019-Jul-16 00:32 131 13.9
2019-Jul-16 00:22 131 13.3
2019-Jul-16 00:12 131 13.3
2019-Jul-16 00:02 131 13.3
2019-Jul-15 23:52 128 13.3
2019-Jul-15 23:42 128 13.3
2019-Jul-15 23:32 128 13.3
2019-Jul-15 23:22 128 13.3
2019-Jul-15 23:12 128 13.9
2019-Jul-15 23:02 128 13.9
2019-Jul-15 22:52 128 13.9
2019-Jul-15 22:42 128 14.4
2019-Jul-15 22:31 128 14.4
2019-Jul-15 22:21 127 14.4
2019-Jul-15 22:11 127 14.4
2019-Jul-15 22:01 127 14.4
2019-Jul-15 21:50 127 14.4
2019-Jul-15 21:41 127 14.4
2019-Jul-15 21:30 128 14.4
2019-Jul-15 21:20 128 14.4
2019-Jul-15 21:10 128 14.4
2019-Jul-15 21:00 127 14.4
2019-Jul-15 20:49 127 13.9
2019-Jul-15 20:40 128 13.9
2019-Jul-15 20:29 128 13.9
2019-Jul-15 20:20 128 13.9
2019-Jul-15 20:09 131 13.9
2019-Jul-15 19:59 132 13.9
2019-Jul-15 19:49 132 13.9
2019-Jul-15 19:39 132 14.4
2019-Jul-15 19:29 132 14.4
2019-Jul-15 19:19 132 15.0
2019-Jul-15 19:09 135 15.6
2019-Jul-15 18:59 131 15.6
2019-Jul-15 18:50 130 15.6
2019-Jul-15 18:39 130 15.6
2019-Jul-15 18:28 132 15.6
2019-Jul-15 18:18 132 15.6
2019-Jul-15 18:09 134 15.0
2019-Jul-15 17:59 134 15.0
2019-Jul-15 17:49 134 15.6
2019-Jul-15 17:39 134 15.6
2019-Jul-15 17:29 134 16.1
2019-Jul-15 17:19 134 17.2
2019-Jul-15 17:08 134 17.8